Location: Goodmayes
(51.5667°N, 0.1167°E)
Time: 14:12:57
(UTC+00:00)

Daily predictions for brighter satellites

Satellite Brightness Start Highest point End
(mag) Time Altitude Azimuth Time Altitude Azimuth Time Altitude Azimuth
Cosmos 1553 Rocket 4.1 20:56:38 10° S 21:02:58 84° E 21:09:14 10° N
BREEZE-M R/B 4.0 21:02:49 10° SSW 21:06:27 35° SE 21:12:53 10° ENE
NOSS 3-2 (C) 3.4 21:01:22 10° SW 21:06:31 82° NW 21:12:50 10° NE
Cosmos 2082 Rocket 3.2 21:02:01 10° NNW 21:07:18 39° NE 21:12:31 10° ESE
Cosmos 1709 Rocket 4.4 21:01:26 10° N 21:07:42 55° ENE 21:13:56 10° SSE
CZ-2C R/B 3.7 21:06:06 10° ESE 21:08:11 20° ENE 21:10:18 10° NNE
Cosmos 2278 Rocket 3.1 21:09:05 10° SSE 21:13:54 30° ESE 21:18:44 10° NE
Cosmos 1666 Rocket 3.6 21:13:01 10° N 21:17:20 65° ENE 21:21:35 10° SSE
USA 238 DEB 3.8 21:17:03 10° S 21:22:48 45° ESE 21:29:07 10° NE
USA 238 3.9 21:17:18 10° S 21:23:02 44° ESE 21:29:21 10° NE
SPOT 3 Rocket 3.7 21:18:19 10° SSE 21:23:28 78° WSW 21:28:40 10° NNW
Lacrosse 5 rocket 1.2 21:20:21 10° WSW 21:23:56 75° NNW 21:27:28 10° ENE
Cosmos 1743 Rocket 4.2 21:20:56 10° NNW 21:25:12 55° W 21:29:28 10° S
Cosmos 1943 Rocket 2.6 21:20:15 10° S 21:25:35 45° ESE 21:30:55 10° NE
YAOGAN 11 4.5 21:26:39 10° N 21:31:05 69° WNW 21:35:23 10° SSW
Cosmos 1745 Rocket 4.2 21:28:45 10° NNW 21:35:04 82° W 21:41:25 10° S
USA 245 3.4 21:35:40 10° S 21:38:27 40° WSW 21:40:51 10° NNW
Cosmos 1515 Rocket 4.4 21:36:36 11° SSE 21:40:14 32° E 21:44:06 10° NNE
USA 186 3.6 21:43:06 10° SW 21:44:07 12° W 21:45:06 10° WNW
Cosmos 1624 Rocket 4.1 21:40:11 10° NNW 21:45:32 89° ENE 21:50:25 12° SSE
Okean 2 3.7 21:42:54 12° SSE 21:46:15 42° E 21:49:56 10° NNE
Cosmos 1633 Rocket 3.2 21:42:45 10° NNW 21:47:09 79° W 21:51:28 10° S
Cosmos 1680 Rocket 3.6 21:42:54 10° S 21:47:59 59° ESE 21:53:07 10° NNE
COSMOS 2406 4.2 21:44:08 10° NNW 21:49:29 39° NE 21:54:47 10° ESE
Cosmos 1400 Rocket 3.3 21:46:51 10° N 21:50:21 42° ENE 21:53:10 14° SE
Cosmos 2056 Rocket 3.5 21:49:28 10° NNW 21:54:35 77° WSW 21:59:06 13° SSE
Meteor 1-23 Rocket 4.2 21:55:40 10° S 22:01:14 83° E 22:06:50 10° NNE
USA 215 3.5 22:02:45 10° ESE 22:09:16 76° NNE 22:15:48 10° WNW
USA 276 2.5 22:08:23 10° SW 22:10:24 25° SSE 22:12:39 10° E
Cosmos 2074 Rocket 4.3 22:07:29 10° N 22:13:37 55° ENE 22:18:40 15° SSE
NOSS 2-1 (E) 3.0 22:12:02 10° SSW 22:15:47 53° SE 22:18:53 10° NE
Ariane Rocket 4.1 22:12:35 10° SSW 22:17:15 37° W 22:21:58 10° NNW
Okean O Rocket 4.2 22:19:46 10° WSW 22:21:41 13° W 22:23:35 10° WNW
NOSS 3-1 (C) 4.4 22:21:46 15° SE 22:23:24 17° ESE 22:26:44 10° ENE
USA 308 3.6 22:26:25 17° ESE 22:26:25 17° ESE 22:28:17 10° E
Helios 1B rocket 2.9 22:24:53 17° SE 22:27:08 38° ENE 22:30:22 10° N
Lacrosse 4 Rocket 3.4 22:23:52 10° NNW 22:27:18 24° NE 22:30:44 10° E
Cosmos 1470 Rocket 4.3 22:23:37 10° NNW 22:27:54 47° W 22:31:40 13° SSW
Cosmos 2315 Rocket 4.4 22:22:53 10° SSW 22:29:02 65° WNW 22:35:14 10° N
Cosmos 1812 0.4 22:29:20 10° N 22:31:02 70° E 22:31:08 66° ESE
ATLAS 5 CENTAUR R/B 4.4 22:25:10 10° SW 22:31:04 83° NW 22:57:27 10° ENE
USA 59 Rocket -0.4 22:30:55 10° SW 22:34:20 64° NW 22:37:17 10° NE
Cosmos 1933 Rocket 3.5 22:30:59 10° NNW 22:35:20 84° W 22:38:23 19° S
Cosmos 1441 Rocket 2.8 22:33:46 22° S 22:35:39 63° E 22:38:51 10° NNE
ATLAS 5 CENTAUR R/B 2.3 22:37:18 17° ESE 22:37:18 17° ESE 22:39:12 10° ENE
Okean 3 3.3 22:34:54 18° S 22:37:48 79° E 22:41:51 10° NNE
CZ-2C R/B 3.9 22:36:44 12° SW 22:38:31 21° W 22:40:41 10° NW
Cosmos 2112 Rocket 4.3 22:33:34 10° SSW 22:38:43 70° WNW 22:43:55 10° NNE
BREEZE-M DEB (TANK) 3.4 22:29:35 10° W 22:38:52 87° NNE 22:41:49 10° E
NOSS 2-1 (D) 3.0 22:35:46 10° SW 22:39:18 70° NW 22:42:18 10° NE
Cosmos 1110 Rocket 4.0 22:36:33 10° NNW 22:41:44 72° WSW 22:45:23 19° SSE
SWAS 4.2 22:40:42 12° SSW 22:44:23 78° ESE 22:48:28 10° NE
Cosmos 2344 3.7 22:39:18 10° SW 22:46:52 72° NW 22:54:12 10° NE
Cosmos 2082 Rocket 2.7 22:46:06 10° NW 22:51:30 48° WSW 22:55:23 18° S
Cosmos 1452 Rocket 3.5 22:46:52 10° NNW 22:52:10 88° WSW 22:55:52 20° SSE
ACS3 Solar Sail 3.5 22:49:39 10° NE 22:53:04 16° E 22:56:31 10° ESE
Helios 1A 2.8 22:49:34 10° NNE 22:53:33 89° SE 22:56:21 19° SSW
SL-4 R/B 2.7 22:55:57 23° SE 22:55:57 23° SE 22:58:00 10° E
Cosmos 2278 Rocket 2.8 22:52:04 10° SW 22:57:39 58° NW 23:03:16 10° NNE
NOSS 2-1 (C) 3.5 22:55:45 10° WSW 22:59:13 55° NW 23:02:11 10° NE
TIMED 4.4 22:56:50 16° SSW 23:00:14 90° SSE 23:04:31 10° NNE
Cosmos 2184 Rocket 4.1 22:54:19 10° NNW 23:00:38 77° W 23:05:24 19° S
Lacrosse 5 rocket 2.8 22:57:31 10° WNW 23:00:49 34° N 23:04:02 10° ENE
Cosmos 614 Rocket 4.1 22:57:56 19° S 23:01:25 59° ESE 23:06:24 10° NNE
Cosmos 2154 Rocket 4.0 22:55:37 10° NNW 23:01:51 81° W 23:06:28 19° S
Cosmos 1174 3.4 23:00:26 11° SW 23:04:07 86° ESE 23:07:26 10° NE
Cosmos 1331 Rocket 4.5 23:00:57 10° NNW 23:05:56 50° WSW 23:09:16 20° S
Cosmos 1869 Rocket 3.9 23:03:20 10° NNW 23:07:33 54° W 23:10:17 21° SSW
Cosmos 546 4.4 23:03:57 10° W 23:07:42 73° S 23:11:29 10° ESE
Timation 2 Rocket 4.2 23:01:31 10° SW 23:07:53 79° NW 23:14:35 10° NNE
ARIANE 5 R/B 2.6 23:05:10 23° SSE 23:07:58 83° ENE 23:12:24 10° NNW
SL-8 R/B 3.8 23:04:48 10° WSW 23:09:21 49° SSE 23:13:56 10° E
Cosmos 1943 Rocket 3.5 23:04:05 10° WSW 23:09:24 41° NW 23:14:43 10° NNE
CZ-2C R/B 3.8 23:05:22 10° NNE 23:10:05 72° ESE 23:13:10 22° S
ARGOS Delta rocket 4.0 23:06:07 10° N 23:11:25 83° WNW 23:15:12 18° SSW
USA 238 DEB 4.3 23:07:25 10° WSW 23:13:35 57° NW 23:20:30 10° NE
USA 238 4.3 23:07:37 10° WSW 23:13:49 58° NW 23:20:44 10° NE
CZ-2C R/B 3.9 23:11:52 10° NNE 23:16:52 37° E 23:19:49 20° SSE
SAR-Lupe-2 4.4 23:15:20 20° ESE 23:17:01 36° ENE 23:20:01 10° N
Cosmos 1733 Rocket 3.0 23:15:15 10° N 23:19:34 84° E 23:22:03 25° SSE
BREEZE-M R/B 4.3 23:15:09 10° W 23:20:23 78° S 23:31:27 10° E
CZ-2C R/B 3.4 23:16:25 15° SE 23:20:28 46° ENE 23:25:31 10° N
SL-12 R/B(2) 4.4 23:15:35 13° SSW 23:22:39 61° ESE 23:32:12 10° NE
ALOS 2 2.6 23:21:23 24° S 23:23:59 82° WSW 23:28:25 10° NNW
Cosmos 2341 Rocket 4.4 23:18:08 10° N 23:24:18 57° ENE 23:28:53 18° SSE
Cosmos 1707 Rocket 3.8 23:22:47 25° SSE 23:25:12 57° E 23:29:33 10° NNE
Cosmos 2228 Rocket 3.7 23:26:00 23° SSE 23:28:18 43° E 23:32:30 10° NNE
IRIDIUM 104 4.4 23:24:03 10° N 23:29:18 71° E 23:32:38 23° SSE
USA 290 2.3 23:26:37 10° NNW 23:29:45 65° ENE 23:31:10 29° SE
Cosmos 1356 Rocket 4.1 23:25:58 10° N 23:29:50 43° ENE 23:32:18 20° SE
COSMOS 2406 3.7 23:28:27 10° NW 23:33:54 48° WSW 23:37:19 22° S
Cosmos 2369 Rocket 2.5 23:32:23 22° S 23:35:46 52° ESE 23:41:13 10° NE
Cosmos 1315 Rocket 2.7 23:32:19 10° N 23:36:08 75° ENE 23:38:04 27° SSE
Cosmos 1862 Rocket 3.5 23:34:20 26° S 23:36:44 79° E 23:41:03 10° NNE
ARIANE 6 FM1 Upper Stage 2.6 23:34:00 20° SSW 23:36:44 64° SE 23:40:49 10° NE
IRIDIUM 114 4.3 23:33:12 10° N 23:38:28 83° E 23:41:46 23° S
Cosmos 2297 4.1 23:36:39 22° S 23:40:06 50° ESE 23:45:36 10° NE
USA 276 1.5 23:40:18 10° WSW 23:42:49 60° S 23:45:37 10° E
Cosmos 1656 Rocket 3.9 23:40:52 12° SW 23:46:01 69° WNW 23:51:37 10° NNE
Cosmos 972 Rocket 4.4 23:41:09 10° NNW 23:46:34 52° WSW 23:49:35 23° S
USA 308 2.0 23:45:04 18° WSW 23:47:09 81° SSE 23:51:13 10° ENE
IRIDIUM 103 4.3 23:42:22 10° N 23:47:38 84° W 23:50:55 23° S
Cosmos 1302 Rocket 4.5 23:45:44 10° NW 23:50:48 48° WSW 23:53:49 23° S
Okean 1-7 3.0 23:48:24 24° SSW 23:50:51 73° WNW 23:55:06 10° N
USA 215 3.5 23:47:35 17° SSE 23:52:32 51° SW 23:58:53 10° WNW
PSLV R/B 3.8 23:48:54 10° NNE 23:53:34 76° WNW 23:56:35 22° SSW
